Location: ?astrovice
(49.6513°N, 14.9287°E)
Time: 10:15:19
(UTC+00:00)

ATLAS 2AS CENTAUR R/B - Pass Details

Date: 09 April 2020
Orbit: 929 x 1283 km, 63.7° (Epoch: 21 May)

Event Time Altitude Azimuth Distance (km) Brightness Sun altitude
Rises 18:05:58 0° 317° (NW) 4,198 7.0 -4.1°
Reaches altitude 10° 18:08:51 10° 317° (NW) 3,193 6.3 -4.6°
Maximum altitude 18:16:33 83° 231° (SW) 1,172 3.0 -5.8°
Drops below altitude 10° 18:23:34 10° 145° (SE) 2,927 4.5 -6.8°
Enters shadow 18:25:33 - 144° (SE) 3,633 5.0 -7.1°
